QPF
0.00 0.00 0.00 0.00 0.00 0.00 0.00 0.00 0.00 0.00 0.00 0.00 0.00 0.00 0.00 0.00 0.00 0.00 0.00 0.00 0.00 0.00 0.00 0.00 0.00 0.00 0.00 0.00 0.00 0.00 0.00 0.00 0.00 0.00 0.00 0.00 0.00 0.00 0.00 0.00 0.00 0.00 0.00 0.00
0.00 0.00 0.00 0.00 0.00 0.00 0.00 0.00 0.00 0.00 0.00 0.00 0.00 0.00 0.00 0.00 0.00 0.00 0.00 0.00 0.00 0.00 0.00 0.00 0.00 0.00 0.00 0.00 0.00 0.00 0.00 0.00 0.00 0.00 0.00 0.00 0.00 0.00 0.00 0.00 0.00 0.00 0.00 0.00
0.00 0.00 0.00 0.00 0.00 0.00 0.00 0.00 0.00 0.00 0.00 0.00 0.00 0.00 0.00 0.00 0.00 0.00 0.00 0.00 0.00 0.00 0.00 0.00 0.00 0.00 0.00 0.00 0.00 0.00 0.00 0.00 0.00 0.00 0.00 0.00 0.00 0.00 0.00 0.00 0.00 0.00 0.00 0.00
0.00 0.00 0.00 0.00 0.00 0.00 0.00 0.00 0.00 0.00 0.00 0.00 0.00 0.00 0.00 0.00 0.00 0.00 0.00 0.00 0.00 0.00 0.00 0.00 0.00 0.00 0.00 0.00 0.00 0.00 0.00 0.00 0.00 0.00 0.00 0.00 0.00 0.00 0.00 0.00 0.00 0.00 0.00 0.00
0.00 0.00 0.00 0.00 0.00 0.00 0.00 0.00 0.00 0.00 0.00 0.00 0.00 0.00 0.00 0.00 0.00 0.00 0.00 0.00 0.00 0.00 0.00 0.00 0.00 0.00 0.00 0.00 0.00 0.00 0.00 0.00 0.00 0.00 0.00 0.00 0.00 0.00 0.00 0.00 0.00 0.00 0.00 0.00
0.00 0.00 0.00 0.00 0.00 0.00 0.00 0.00 0.00 0.00 0.00 0.00 0.00 0.00 0.00 0.00 0.00 0.00 0.00 0.00 0.00 0.00 0.00 0.00 0.00 0.00 0.00 0.00 0.00 0.00 0.00 0.00 0.00 0.00 0.00 0.00 0.00 0.00 0.00 0.00 0.00 0.00 0.00 0.00
0.00 0.00 0.00 0.00 0.00 0.00 0.00 0.00 0.00 0.00 0.00 0.00 0.00 0.00 0.00 0.00 0.00 0.00 0.00 0.00 0.00 0.00 0.00 0.00 0.00 0.00 0.00 0.00 0.00 0.00 0.00 0.00 0.00 0.00 0.00 0.00 0.00 0.00 0.00 0.00 0.00 0.00 0.00 0.00
0.00 0.00 0.00 0.00 0.00 0.00 0.00 0.00 0.00 0.00 0.00 0.00 0.00 0.00 0.00 0.00 0.00 0.00 0.00 0.00 0.00 0.00 0.00 0.00 0.00 0.00 0.00 0.00 0.00 0.00 0.00 0.00 0.00 0.00 0.00 0.00 0.00 0.00 0.00 0.00 0.00 0.00 0.00 0.00
0.00 0.00 0.00 0.00 0.00 0.00 0.00 0.00 0.00 0.00 0.00 0.00 0.00 0.00 0.00 0.00 0.00 0.00 0.00 0.00 0.00 0.00 0.00 0.00 0.00 0.00 0.00 0.00 0.00 0.00 0.00 0.00 0.00 0.00 0.00 0.00 0.00 0.00 0.00 0.00 0.00 0.00 0.00 0.00
0.00 0.00 0.00 0.00 0.00 0.00 0.00 0.00 0.00 0.00 0.00 0.00 0.00 0.00 0.00 0.00 0.00 0.00 0.00 0.00 0.00 0.00 0.00 0.00 0.00 0.00 0.00 0.00 0.00 0.00 0.00 0.00 0.00 0.00 0.00 0.00 0.00 0.00 0.00 0.00 0.00 0.00 0.00 0.00
0.00 0.00 0.00 0.00 0.00 0.00 0.00 0.00 0.00 0.00 0.00 0.00 0.00 0.00 0.00 0.00 0.00 0.00 0.00 0.00 0.00 0.00 0.00 0.00 0.00 0.00 0.00 0.00 0.00 0.00 0.00 0.00 0.00 0.00 0.00 0.00 0.00 0.00 0.00 0.00 0.00 0.00 0.00 0.00
0.00 0.00 0.00 0.00 0.00 0.00 0.00 0.00 0.00 0.00 0.00 0.00 0.00 0.00 0.00 0.00 0.00 0.00 0.00 0.00 0.00 0.00 0.00 0.00 0.00 0.00 0.00 0.00 0.00 0.00 0.00 0.00 0.00 0.00 0.00 0.00 0.00 0.00 0.00 0.00 0.00 0.00 0.00 0.00
0.00 0.00 0.00 0.00 0.00 0.00 0.00 0.00 0.00 0.00 0.00 0.00 0.00 0.00 0.00 0.00 0.00 0.00 0.00 0.00 0.00 0.00 0.00 0.00 0.00 0.00 0.00 0.00 0.00 0.00 0.00 0.00 0.00 0.00 0.00 0.00 0.00 0.00 0.00 0.00 0.00 0.00 0.00 0.00
0.00 0.00 0.00 0.00 0.00 0.00 0.00 0.00 0.00 0.00 0.00 0.00 0.00 0.00 0.00 0.00 0.00 0.00 0.00 0.00 0.00 0.00 0.00 0.00 0.00 0.00 0.00 0.00 0.00 0.00 0.00 0.00 0.00 0.00 0.00 0.00 0.00 0.00 0.00 0.00 0.00 0.00 0.00 0.00
0.00 0.00 0.00 0.00 0.00 0.00 0.00 0.00 0.00 0.00 0.00 0.00 0.00 0.00 0.00 0.00 0.00 0.00 0.00 0.00 0.00 0.00 0.00 0.00 0.00 0.00 0.00 0.00 0.00 0.00 0.00 0.00 0.00 0.00 0.00 0.00 0.00 0.00 0.00 0.00 0.00 0.00 0.00 0.00
0.00 0.00 0.00 0.00 0.00 0.00 0.00 0.00 0.00 0.00 0.00 0.00 0.00 0.00 0.00 0.00 0.00 0.00 0.00 0.00 0.00 0.00 0.00 0.00 0.00 0.00 0.00 0.00 0.00 0.00 0.00 0.00 0.00 0.00 0.00 0.00 0.00 0.00 0.00 0.00 0.00 0.00 0.00 0.00
0.00 0.00 0.00 0.00 0.00 0.00 0.00 0.00 0.00 0.00 0.00 0.00 0.00 0.00 0.00 0.00 0.00 0.00 0.00 0.00 0.00 0.00 0.00 0.00 0.00 0.00 0.00 0.00 0.00 0.00 0.00 0.00 0.00 0.00 0.00 0.00 0.00 0.00 0.00 0.00 0.00 0.00 0.00 0.00
0.00 0.00 0.00 0.00 0.00 0.00 0.00 0.00 0.00 0.00 0.00 0.00 0.00 0.00 0.00 0.00 0.00 0.00 0.00 0.00 0.00 0.00 0.00 0.00 0.00 0.00 0.00 0.00 0.00 0.00 0.00 0.00 0.00 0.00 0.00 0.00 0.00 0.00 0.00 0.00 0.00 0.00 0.00 0.00
0.00 0.00 0.00 0.00 0.00 0.00 0.00 0.00 0.00 0.00 0.00 0.00 0.00 0.00 0.00 0.00 0.00 0.00 0.00 0.00 0.00 0.00 0.00 0.00 0.00 0.00 0.00 0.00 0.00 0.00 0.00 0.00 0.00 0.00 0.00 0.00 0.00 0.00 0.00 0.00 0.00 0.00 0.00 0.00
0.00 0.00 0.00 0.00 0.00 0.00 0.00 0.00 0.00 0.00 0.00 0.00 0.00 0.00 0.00 0.00 0.00 0.00 0.00 0.00 0.00 0.00 0.00 0.00 0.00 0.00 0.00 0.00 0.00 0.00 0.00 0.00 0.00 0.00 0.00 0.00 0.00 0.00 0.00 0.00 0.00 0.00 0.00 0.00
0.00 0.00 0.00 0.00 0.00 0.00 0.00 0.00 0.00 0.00 0.00 0.00 0.00 0.00 0.00 0.00 0.00 0.00 0.00 0.00 0.00 0.00 0.00 0.00 0.00 0.00 0.00 0.00 0.00 0.00 0.00 0.00 0.00 0.00 0.00 0.00 0.00 0.00 0.00 0.00 0.00 0.00 0.00 0.00
0.00 0.00 0.00 0.00 0.00 0.00 0.00 0.00 0.00 0.00 0.00 0.00 0.00 0.00 0.00 0.00 0.00 0.00 0.00 0.00 0.00 0.00 0.00 0.00 0.00 0.00 0.00 0.00 0.00 0.00 0.00 0.00 0.00 0.00 0.00 0.00 0.00 0.00 0.00 0.00 0.00 0.00 0.00 0.01
0.00 0.00 0.00 0.00 0.00 0.00 0.00 0.00 0.00 0.00 0.00 0.00 0.00 0.00 0.00 0.00 0.00 0.00 0.00 0.00 0.00 0.00 0.00 0.00 0.00 0.00 0.00 0.00 0.00 0.00 0.00 0.00 0.00 0.00 0.00 0.00 0.00 0.00 0.00 0.00 0.00 0.00 0.01 0.01
0.00 0.00 0.00 0.00 0.00 0.00 0.00 0.00 0.00 0.00 0.00 0.00 0.00 0.00 0.00 0.00 0.00 0.00 0.00 0.00 0.00 0.00 0.00 0.00 0.00 0.00 0.00 0.00 0.00 0.00 0.00 0.00 0.00 0.00 0.00 0.00 0.00 0.00 0.00 0.00 0.00 0.01 0.02 0.04
0.00 0.00 0.00 0.00 0.00 0.00 0.00 0.00 0.00 0.00 0.00 0.00 0.00 0.00 0.00 0.00 0.00 0.00 0.00 0.00 0.00 0.00 0.00 0.00 0.00 0.00 0.00 0.00 0.00 0.00 0.00 0.00 0.00 0.00 0.00 0.00 0.00 0.00 0.00 0.00 0.00 0.01 0.02 0.05
0.00 0.00 0.00 0.00 0.00 0.00 0.00 0.00 0.00 0.00 0.00 0.00 0.00 0.00 0.00 0.00 0.00 0.00 0.00 0.00 0.00 0.00 0.00 0.00 0.00 0.00 0.00 0.00 0.00 0.00 0.00 0.00 0.00 0.00 0.00 0.00 0.00 0.00 0.00 0.00 0.00 0.00 0.01 0.02
MSLP
1019.74 1020.50 1021.26 1021.96 1022.57 1023.07 1023.48 1023.85 1024.22 1024.66 1025.18 1025.80 1026.50 1027.23 1027.95 1028.60 1029.16 1029.62 1029.97 1030.26 1030.52 1030.79 1031.10 1031.47 1031.87 1032.29 1032.66 1032.95 1033.11 1033.12 1032.95 1032.62 1032.17 1031.62 1031.03 1030.41 1029.79 1029.19 1028.59 1027.99 1027.38 1026.75 1026.11 1025.47
1020.67 1021.31 1021.92 1022.43 1022.83 1023.14 1023.38 1023.63 1023.93 1024.34 1024.87 1025.52 1026.27 1027.05 1027.82 1028.53 1029.14 1029.63 1030.04 1030.38 1030.70 1031.03 1031.39 1031.81 1032.24 1032.68 1033.06 1033.36 1033.52 1033.53 1033.38 1033.09 1032.67 1032.17 1031.61 1031.02 1030.41 1029.79 1029.15 1028.50 1027.83 1027.15 1026.46 1025.79
1021.59 1022.13 1022.58 1022.91 1023.14 1023.29 1023.40 1023.55 1023.79 1024.16 1024.69 1025.35 1026.11 1026.92 1027.73 1028.46 1029.11 1029.66 1030.13 1030.54 1030.93 1031.33 1031.75 1032.20 1032.66 1033.10 1033.47 1033.73 1033.87 1033.87 1033.72 1033.44 1033.06 1032.60 1032.09 1031.53 1030.93 1030.30 1029.65 1028.96 1028.25 1027.53 1026.82 1026.13
1022.49 1022.92 1023.24 1023.44 1023.53 1023.55 1023.56 1023.64 1023.83 1024.17 1024.68 1025.33 1026.09 1026.89 1027.69 1028.44 1029.11 1029.70 1030.23 1030.71 1031.18 1031.65 1032.13 1032.62 1033.09 1033.50 1033.84 1034.06 1034.15 1034.12 1033.96 1033.69 1033.33 1032.90 1032.43 1031.90 1031.33 1030.71 1030.05 1029.36 1028.63 1027.90 1027.17 1026.47
1023.34 1023.69 1023.91 1024.00 1023.99 1023.93 1023.88 1023.90 1024.06 1024.38 1024.87 1025.49 1026.21 1026.98 1027.74 1028.47 1029.15 1029.76 1030.33 1030.88 1031.42 1031.95 1032.49 1033.00 1033.47 1033.86 1034.15 1034.32 1034.36 1034.28 1034.10 1033.82 1033.48 1033.09 1032.65 1032.16 1031.62 1031.03 1030.38 1029.69 1028.97 1028.24 1027.52 1026.81
1024.14 1024.42 1024.56 1024.57 1024.50 1024.39 1024.31 1024.33 1024.48 1024.78 1025.24 1025.82 1026.48 1027.19 1027.90 1028.58 1029.23 1029.85 1030.44 1031.03 1031.63 1032.22 1032.79 1033.32 1033.79 1034.15 1034.40 1034.51 1034.50 1034.38 1034.17 1033.90 1033.57 1033.20 1032.79 1032.33 1031.83 1031.26 1030.64 1029.97 1029.26 1028.55 1027.84 1027.14
1024.87 1025.08 1025.16 1025.12 1025.02 1024.90 1024.82 1024.85 1025.00 1025.30 1025.73 1026.27 1026.87 1027.51 1028.14 1028.77 1029.37 1029.97 1030.57 1031.19 1031.81 1032.44 1033.04 1033.58 1034.04 1034.37 1034.58 1034.65 1034.60 1034.45 1034.23 1033.94 1033.63 1033.28 1032.89 1032.46 1031.97 1031.43 1030.83 1030.18 1029.50 1028.80 1028.11 1027.42
1025.51 1025.66 1025.69 1025.62 1025.50 1025.39 1025.33 1025.38 1025.56 1025.87 1026.29 1026.79 1027.33 1027.90 1028.46 1029.02 1029.58 1030.15 1030.74 1031.36 1032.00 1032.64 1033.25 1033.79 1034.23 1034.55 1034.72 1034.77 1034.69 1034.53 1034.29 1034.01 1033.70 1033.36 1032.99 1032.57 1032.10 1031.56 1030.97 1030.33 1029.66 1028.98 1028.30 1027.62
1026.05 1026.14 1026.12 1026.02 1025.90 1025.81 1025.78 1025.87 1026.08 1026.40 1026.81 1027.29 1027.80 1028.31 1028.82 1029.33 1029.85 1030.39 1030.96 1031.58 1032.21 1032.85 1033.46 1033.99 1034.41 1034.70 1034.86 1034.89 1034.80 1034.63 1034.40 1034.12 1033.82 1033.49 1033.11 1032.69 1032.21 1031.66 1031.06 1030.42 1029.75 1029.08 1028.40 1027.72
1026.48 1026.51 1026.45 1026.33 1026.21 1026.12 1026.13 1026.24 1026.48 1026.82 1027.24 1027.71 1028.19 1028.68 1029.17 1029.65 1030.15 1030.68 1031.25 1031.85 1032.48 1033.11 1033.70 1034.21 1034.61 1034.88 1035.02 1035.04 1034.95 1034.78 1034.55 1034.29 1033.99 1033.65 1033.26 1032.82 1032.31 1031.74 1031.11 1030.45 1029.77 1029.08 1028.40 1027.72
1026.83 1026.81 1026.71 1026.56 1026.42 1026.33 1026.34 1026.47 1026.72 1027.07 1027.50 1027.97 1028.47 1028.96 1029.45 1029.95 1030.47 1031.01 1031.59 1032.20 1032.83 1033.44 1034.01 1034.49 1034.86 1035.11 1035.23 1035.24 1035.15 1034.98 1034.76 1034.49 1034.19 1033.83 1033.42 1032.94 1032.40 1031.79 1031.12 1030.42 1029.71 1029.01 1028.31 1027.61
1027.14 1027.07 1026.93 1026.75 1026.58 1026.48 1026.47 1026.58 1026.82 1027.17 1027.59 1028.07 1028.59 1029.11 1029.65 1030.20 1030.76 1031.36 1031.97 1032.61 1033.25 1033.85 1034.40 1034.85 1035.19 1035.41 1035.50 1035.49 1035.39 1035.22 1034.99 1034.72 1034.39 1034.02 1033.57 1033.06 1032.47 1031.81 1031.10 1030.36 1029.62 1028.89 1028.17 1027.45
1027.44 1027.35 1027.17 1026.95 1026.75 1026.60 1026.55 1026.62 1026.82 1027.13 1027.54 1028.03 1028.57 1029.14 1029.74 1030.37 1031.02 1031.70 1032.38 1033.07 1033.73 1034.34 1034.87 1035.29 1035.59 1035.77 1035.83 1035.79 1035.67 1035.47 1035.23 1034.93 1034.58 1034.17 1033.69 1033.13 1032.50 1031.80 1031.06 1030.29 1029.51 1028.75 1028.01 1027.27
1027.79 1027.68 1027.48 1027.22 1026.97 1026.76 1026.64 1026.64 1026.77 1027.02 1027.40 1027.88 1028.44 1029.07 1029.76 1030.48 1031.24 1032.02 1032.79 1033.54 1034.25 1034.87 1035.39 1035.79 1036.06 1036.19 1036.21 1036.12 1035.96 1035.72 1035.44 1035.10 1034.71 1034.26 1033.75 1033.15 1032.49 1031.76 1031.00 1030.21 1029.42 1028.63 1027.87 1027.11
1028.18 1028.07 1027.85 1027.57 1027.27 1026.99 1026.79 1026.69 1026.73 1026.91 1027.24 1027.70 1028.28 1028.96 1029.73 1030.56 1031.43 1032.32 1033.19 1034.02 1034.78 1035.43 1035.95 1036.32 1036.55 1036.64 1036.60 1036.46 1036.23 1035.95 1035.61 1035.22 1034.78 1034.29 1033.73 1033.11 1032.43 1031.69 1030.92 1030.13 1029.34 1028.55 1027.77 1026.98
1028.59 1028.49 1028.28 1027.97 1027.62 1027.28 1026.99 1026.80 1026.75 1026.85 1027.12 1027.56 1028.15 1028.87 1029.71 1030.64 1031.62 1032.61 1033.58 1034.49 1035.30 1035.97 1036.49 1036.85 1037.04 1037.07 1036.98 1036.77 1036.48 1036.12 1035.72 1035.26 1034.77 1034.23 1033.64 1033.00 1032.31 1031.58 1030.82 1030.05 1029.27 1028.49 1027.71 1026.91
1028.96 1028.89 1028.68 1028.36 1027.98 1027.58 1027.23 1026.96 1026.84 1026.87 1027.09 1027.51 1028.11 1028.87 1029.78 1030.78 1031.85 1032.93 1033.97 1034.94 1035.78 1036.47 1036.99 1037.32 1037.48 1037.46 1037.31 1037.04 1036.67 1036.24 1035.76 1035.24 1034.69 1034.10 1033.48 1032.83 1032.14 1031.43 1030.70 1029.96 1029.21 1028.45 1027.68 1026.89
1029.20 1029.14 1028.95 1028.64 1028.24 1027.83 1027.44 1027.14 1026.97 1026.98 1027.18 1027.60 1028.21 1029.01 1029.97 1031.03 1032.15 1033.29 1034.37 1035.37 1036.22 1036.91 1037.42 1037.72 1037.83 1037.78 1037.56 1037.23 1036.80 1036.30 1035.75 1035.16 1034.55 1033.91 1033.26 1032.60 1031.92 1031.24 1030.55 1029.85 1029.14 1028.42 1027.67 1026.89
1029.23 1029.18 1029.00 1028.71 1028.33 1027.93 1027.55 1027.26 1027.11 1027.14 1027.37 1027.82 1028.48 1029.32 1030.31 1031.41 1032.56 1033.71 1034.80 1035.78 1036.62 1037.29 1037.75 1038.02 1038.09 1037.99 1037.73 1037.35 1036.86 1036.30 1035.69 1035.04 1034.38 1033.70 1033.02 1032.35 1031.69 1031.03 1030.38 1029.72 1029.06 1028.38 1027.67 1026.92
1029.00 1028.95 1028.79 1028.52 1028.18 1027.83 1027.52 1027.30 1027.23 1027.34 1027.65 1028.17 1028.89 1029.78 1030.81 1031.92 1033.07 1034.20 1035.25 1036.19 1036.97 1037.58 1038.00 1038.22 1038.25 1038.11 1037.81 1037.39 1036.87 1036.26 1035.60 1034.91 1034.20 1033.49 1032.80 1032.12 1031.46 1030.83 1030.21 1029.60 1028.99 1028.36 1027.69 1026.97
1028.51 1028.46 1028.30 1028.07 1027.80 1027.53 1027.33 1027.23 1027.29 1027.54 1027.97 1028.61 1029.42 1030.38 1031.44 1032.56 1033.68 1034.75 1035.73 1036.59 1037.29 1037.82 1038.17 1038.33 1038.31 1038.14 1037.82 1037.38 1036.83 1036.21 1035.52 1034.80 1034.07 1033.34 1032.63 1031.94 1031.29 1030.68 1030.09 1029.52 1028.95 1028.37 1027.75 1027.08
1027.84 1027.75 1027.60 1027.41 1027.22 1027.07 1027.01 1027.08 1027.32 1027.73 1028.34 1029.11 1030.04 1031.07 1032.16 1033.27 1034.34 1035.34 1036.23 1036.98 1037.57 1038.00 1038.26 1038.36 1038.30 1038.10 1037.77 1037.32 1036.78 1036.15 1035.47 1034.74 1034.00 1033.26 1032.55 1031.86 1031.22 1030.62 1030.06 1029.52 1028.99 1028.45 1027.88 1027.26
1027.06 1026.94 1026.79 1026.65 1026.55 1026.53 1026.63 1026.89 1027.33 1027.94 1028.73 1029.66 1030.70 1031.81 1032.93 1034.02 1035.03 1035.94 1036.71 1037.34 1037.82 1038.14 1038.31 1038.34 1038.25 1038.02 1037.69 1037.25 1036.73 1036.12 1035.46 1034.75 1034.02 1033.29 1032.58 1031.91 1031.28 1030.69 1030.15 1029.64 1029.14 1028.63 1028.10 1027.53
1026.28 1026.13 1025.99 1025.90 1025.90 1026.02 1026.29 1026.74 1027.38 1028.19 1029.16 1030.23 1031.38 1032.54 1033.68 1034.74 1035.69 1036.50 1037.16 1037.67 1038.03 1038.25 1038.33 1038.30 1038.17 1037.94 1037.61 1037.20 1036.70 1036.13 1035.50 1034.83 1034.13 1033.42 1032.73 1032.07 1031.46 1030.89 1030.37 1029.87 1029.39 1028.92 1028.42 1027.90
1025.59 1025.42 1025.30 1025.27 1025.37 1025.63 1026.07 1026.70 1027.52 1028.50 1029.62 1030.81 1032.04 1033.24 1034.38 1035.40 1036.27 1036.99 1037.54 1037.94 1038.19 1038.32 1038.34 1038.26 1038.10 1037.86 1037.55 1037.16 1036.70 1036.18 1035.59 1034.96 1034.30 1033.63 1032.97 1032.34 1031.74 1031.19 1030.68 1030.21 1029.75 1029.29 1028.82 1028.33
1025.01 1024.84 1024.76 1024.81 1025.02 1025.42 1026.01 1026.80 1027.77 1028.89 1030.11 1031.39 1032.66 1033.87 1034.98 1035.94 1036.75 1037.38 1037.84 1038.15 1038.32 1038.38 1038.34 1038.22 1038.05 1037.81 1037.51 1037.15 1036.73 1036.25 1035.70 1035.12 1034.50 1033.87 1033.25 1032.65 1032.08 1031.55 1031.05 1030.59 1030.14 1029.69 1029.24 1028.76
Thickness
5719 5701 5679 5678 5682 5681 5683 5678 5668 5647 5639 5635 5631 5614 5600 5591 5582 5574 5562 5551 5539 5525 5512 5498 5483 5468 5452 5438 5423 5409 5396 5383 5374 5366 5360 5356 5352 5349 5347 5344 5341 5340 5341 5343
5698 5677 5678 5685 5684 5682 5679 5671 5663 5642 5636 5631 5626 5614 5601 5587 5577 5563 5552 5541 5528 5514 5500 5485 5469 5452 5435 5419 5403 5389 5375 5363 5353 5344 5338 5332 5329 5327 5326 5323 5321 5320 5321 5323
5679 5673 5682 5682 5677 5672 5672 5659 5650 5644 5629 5624 5617 5610 5599 5582 5570 5555 5545 5535 5520 5504 5485 5470 5454 5436 5419 5402 5386 5372 5358 5347 5336 5327 5320 5315 5312 5308 5306 5305 5303 5301 5300 5301
5676 5677 5678 5674 5661 5656 5658 5650 5646 5640 5624 5621 5611 5602 5592 5575 5559 5549 5538 5523 5506 5489 5473 5457 5440 5421 5403 5385 5369 5354 5341 5331 5320 5311 5303 5296 5292 5289 5286 5284 5284 5282 5281 5281
5667 5667 5667 5661 5654 5650 5649 5647 5640 5636 5627 5620 5608 5597 5587 5569 5552 5543 5529 5512 5495 5478 5461 5443 5425 5405 5388 5370 5354 5340 5328 5317 5307 5297 5288 5282 5276 5272 5270 5268 5267 5265 5264 5264
5665 5667 5661 5655 5655 5651 5647 5643 5639 5632 5619 5608 5620 5598 5584 5566 5554 5534 5515 5501 5485 5467 5449 5429 5410 5392 5374 5356 5341 5328 5316 5305 5296 5286 5278 5270 5264 5260 5256 5254 5252 5250 5250 5249
5662 5661 5659 5657 5652 5652 5645 5634 5624 5616 5608 5612 5620 5608 5568 5549 5536 5520 5506 5492 5474 5454 5434 5415 5397 5379 5361 5345 5330 5317 5305 5295 5286 5276 5267 5259 5252 5247 5242 5239 5237 5236 5236 5235
5665 5651 5649 5647 5639 5630 5639 5632 5608 5596 5602 5613 5614 5586 5543 5539 5527 5516 5503 5484 5463 5441 5421 5402 5384 5366 5349 5333 5319 5307 5296 5286 5276 5267 5258 5249 5242 5236 5231 5226 5224 5222 5220 5219
5649 5647 5643 5640 5638 5632 5629 5623 5617 5602 5603 5598 5603 5548 5540 5533 5523 5511 5494 5472 5450 5430 5411 5391 5373 5355 5339 5323 5310 5298 5287 5277 5267 5258 5248 5240 5233 5227 5222 5217 5214 5211 5209 5207
5642 5640 5643 5639 5634 5628 5626 5617 5608 5598 5584 5577 5593 5578 5546 5525 5516 5499 5481 5459 5439 5421 5400 5381 5363 5346 5330 5315 5302 5290 5278 5268 5258 5248 5239 5231 5224 5218 5213 5209 5206 5203 5199 5197
5640 5634 5638 5634 5632 5629 5621 5616 5610 5599 5588 5567 5561 5556 5542 5519 5505 5490 5471 5450 5430 5410 5390 5371 5353 5337 5322 5308 5295 5283 5272 5262 5251 5241 5231 5223 5217 5211 5206 5201 5197 5193 5190 5187
5633 5625 5631 5631 5620 5620 5614 5608 5600 5584 5581 5579 5561 5542 5533 5513 5502 5484 5463 5443 5421 5401 5381 5362 5344 5329 5315 5302 5289 5277 5266 5254 5243 5233 5224 5216 5210 5204 5198 5193 5188 5184 5180 5177
5623 5622 5622 5618 5613 5611 5610 5606 5596 5584 5569 5555 5546 5542 5525 5508 5495 5476 5455 5432 5412 5392 5372 5352 5335 5320 5307 5295 5283 5270 5258 5246 5236 5226 5217 5210 5203 5197 5191 5185 5179 5173 5169 5166
5619 5617 5617 5612 5613 5602 5603 5598 5589 5577 5558 5554 5557 5543 5515 5501 5485 5467 5445 5421 5400 5382 5362 5344 5326 5312 5300 5288 5275 5264 5251 5239 5229 5219 5210 5203 5196 5189 5182 5175 5168 5161 5156 5151
5618 5613 5623 5620 5617 5608 5598 5591 5586 5574 5565 5553 5552 5537 5517 5493 5479 5458 5434 5413 5393 5373 5354 5336 5319 5306 5294 5282 5270 5258 5245 5234 5223 5213 5205 5197 5190 5182 5174 5166 5157 5149 5140 5132
5618 5610 5614 5614 5616 5601 5592 5588 5582 5573 5565 5555 5545 5530 5504 5493 5474 5450 5423 5403 5383 5363 5345 5328 5313 5300 5288 5276 5265 5253 5241 5230 5220 5210 5202 5195 5187 5178 5169 5158 5148 5136 5124 5114
5616 5607 5602 5599 5611 5603 5593 5598 5581 5573 5565 5554 5539 5519 5502 5485 5466 5440 5413 5393 5374 5354 5336 5320 5306 5293 5282 5271 5259 5248 5238 5227 5219 5211 5203 5195 5185 5175 5163 5152 5139 5124 5109 5098
5610 5603 5593 5584 5588 5582 5603 5584 5585 5574 5564 5552 5536 5516 5497 5477 5455 5426 5404 5384 5365 5346 5329 5314 5301 5290 5279 5269 5257 5245 5235 5227 5220 5212 5203 5193 5182 5171 5160 5146 5132 5114 5099 5087
5602 5597 5588 5572 5573 5585 5587 5578 5571 5560 5553 5546 5528 5510 5490 5471 5448 5411 5397 5379 5360 5342 5326 5312 5299 5288 5277 5266 5255 5244 5236 5230 5221 5211 5201 5192 5181 5169 5157 5143 5127 5109 5094 5085
5596 5591 5580 5571 5559 5569 5590 5572 5566 5554 5539 5533 5518 5500 5481 5461 5433 5411 5390 5374 5355 5340 5324 5310 5298 5286 5275 5264 5254 5244 5238 5231 5220 5211 5201 5191 5180 5167 5154 5140 5125 5108 5094 5085
5591 5582 5568 5568 5563 5577 5574 5564 5553 5536 5541 5522 5509 5491 5472 5449 5427 5404 5387 5369 5352 5337 5322 5307 5295 5283 5272 5263 5254 5246 5238 5229 5219 5210 5201 5192 5181 5169 5156 5141 5125 5110 5097 5088
5596 5588 5578 5572 5564 5573 5564 5551 5541 5542 5530 5518 5500 5481 5461 5442 5421 5401 5381 5365 5349 5332 5318 5303 5291 5281 5271 5263 5255 5246 5237 5229 5220 5211 5203 5194 5184 5173 5160 5145 5131 5117 5103 5094
5617 5611 5601 5594 5590 5585 5570 5560 5552 5539 5524 5507 5488 5472 5453 5435 5414 5394 5377 5362 5346 5330 5313 5300 5288 5278 5270 5263 5256 5247 5238 5231 5222 5214 5206 5197 5187 5175 5163 5150 5137 5125 5111 5100
5625 5618 5604 5596 5597 5579 5569 5554 5545 5535 5517 5499 5481 5463 5446 5426 5406 5389 5372 5357 5341 5325 5310 5297 5286 5276 5269 5264 5257 5248 5240 5231 5223 5216 5208 5200 5190 5179 5167 5156 5144 5132 5120 5110
5630 5605 5596 5596 5593 5575 5564 5550 5539 5523 5507 5489 5472 5457 5439 5420 5401 5385 5368 5352 5336 5322 5307 5295 5284 5276 5271 5265 5257 5250 5241 5233 5225 5219 5211 5202 5193 5182 5171 5160 5149 5139 5127 5119
5626 5616 5603 5603 5600 5575 5562 5549 5533 5513 5497 5481 5465 5447 5431 5414 5397 5380 5363 5347 5332 5317 5304 5294 5285 5278 5271 5265 5258 5250 5242 5235 5228 5222 5215 5206 5197 5187 5177 5166 5155 5146 5138 5130